Simultaneous Nadir Overpasses (SNOs) Predictions

Prediction of SNOs between GOES-16 and METOP-B Satellite Orbit:

Table of predicted SNOs for the next 14.0 days since TLE Epoch: 10/28/2023
Index Date Time (GOES-16) GOES-16 Lat,Lon METOP-B Lat,Lon Distance(km) Time Diff (sec)
1 10/29/2023 02:30:08 0.06, -75.20 0.04, -75.25 5.71 80
2 10/31/2023 14:28:20 -0.05, -75.23 -0.14, -74.82 46.69 80
3 11/02/2023 02:47:20 0.05, -75.22 -0.86, -79.43 478.63 80
4 11/03/2023 02:23:59 0.04, -75.23 0.21, -74.43 91.27 80
5 11/04/2023 14:42:51 -0.04, -75.27 0.80, -78.99 424.83 80
6 11/05/2023 14:24:51 -0.03, -75.28 -0.33, -74.00 145.61 80
7 11/07/2023 02:43:51 0.03, -75.28 -0.71, -78.60 378.15 80
8 11/08/2023 02:20:31 0.03, -75.30 0.43, -73.61 192.72 80
9 11/09/2023 14:39:22 -0.03, -75.35 0.57, -78.18 322.01 80
10 11/10/2023 14:21:22 -0.03, -75.37 -0.51, -73.18 249.30 80
